Location: Saint Nicholas at Wade
(51.3500°N, 1.2500°E)
Time: 01:08:09
(UTC+00:00)

Daily predictions for brighter satellites

Satellite Brightness Start Highest point End
(mag) Time Altitude Azimuth Time Altitude Azimuth Time Altitude Azimuth
NOSS 2-2 (D) 4.1 00:00:04 10° NW 00:04:49 85° NE 00:11:32 10° SE
Cosmos 1461 3.0 00:01:09 10° NW 00:05:14 56° SW 00:06:31 38° S
Gblst 52 Del rocket 4.2 00:00:02 10° WSW 00:06:16 74° SSE 00:11:53 10° ENE
Cosmos 1553 Rocket 4.0 00:03:21 28° S 00:06:45 78° E 00:12:58 10° NNE
Cosmos 1867 3.8 00:05:01 31° S 00:07:27 54° ESE 00:12:48 10° NE
Cosmos 2221 Rocket 3.5 00:06:47 36° S 00:08:33 76° E 00:12:58 10° NNE
Cosmos 1674 Rocket 3.9 00:06:55 32° SSE 00:08:37 53° E 00:12:50 10° NNE
USA 306 4.4 00:11:52 21° SE 00:11:52 21° SE 00:14:41 10° E
Cosmos 1238 Rocket 2.0 00:08:43 10° N 00:11:41 86° W 00:12:06 63° S
Cosmos 1674 2.5 00:10:51 44° S 00:11:58 86° E 00:15:45 10° N
ATLAS CENTAUR R/B 2.8 00:08:59 10° WNW 00:13:05 28° WSW 00:13:59 26° SW
USA 307 4.5 00:15:20 19° SE 00:15:20 19° SE 00:18:04 10° E
SL-19 R/B 4.0 00:17:34 47° SW 00:17:50 49° WSW 00:20:43 10° NNW
SL-16 R/B 4.4 00:17:19 10° ESE 00:19:30 12° E 00:21:41 10° ENE
Cosmos 468 4.4 00:16:25 10° NNW 00:21:40 77° WSW 00:24:28 28° SSE
ATLAS 5 CENTAUR R/B 3.4 00:06:39 10° NW 00:21:44 67° SW 00:24:39 24° SSE
CZ-4C R/B 3.1 00:14:56 10° NW 00:21:57 59° SW 00:27:52 20° SSE
Cosmos 2322 Rocket 3.8 00:17:07 10° WSW 00:22:04 31° NW 00:27:01 10° NNE
Cosmos 2333 Rocket 2.6 00:19:42 19° SW 00:23:44 62° NW 00:29:24 10° NNE
Cosmos 1378 Rocket 3.6 00:22:19 34° S 00:24:10 73° E 00:28:37 10° NNE
Cosmos 2322 3.8 00:20:47 24° SW 00:24:23 78° WNW 00:30:10 10° NNE
Cosmos 1844 Rocket 4.5 00:21:21 10° WNW 00:24:37 16° W 00:26:32 14° WSW
USA 215 3.3 00:20:24 10° ENE 00:26:59 82° NNW 00:33:33 10° WSW
NOSS 0 Rocket 4.2 00:29:23 26° S 00:32:45 55° ESE 00:38:50 10° NE
PSLV R/B 3.7 00:28:33 10° N 00:32:54 68° WNW 00:35:01 30° SSW
Meteor 2-10 Rocket 4.1 00:31:27 10° N 00:37:07 61° ENE 00:41:17 18° SSE
USA 32 4.4 00:35:15 24° SSE 00:38:18 56° E 00:43:28 10° NNE
Cosmos 2151 Rocket 4.2 00:35:02 10° NNW 00:39:13 43° W 00:40:53 29° SW
Cosmos 1745 Rocket 4.0 00:34:39 10° NNW 00:40:54 72° W 00:44:35 25° S
Cosmos 1975 Rocket 4.4 00:39:39 18° SE 00:42:11 31° E 00:46:09 10° NNE
Cosmos 839 Rocket 4.1 00:36:08 10° NW 00:42:25 73° SW 00:49:12 12° SSE
Okean 2 Rocket 4.0 00:39:20 10° NNW 00:43:28 36° W 00:45:14 26° SW
Okean 2 4.2 00:42:13 26° SW 00:44:01 41° WNW 00:47:55 10° N
ADEOS Rocket 4.0 00:42:18 21° SW 00:45:00 30° W 00:50:13 10° NNW
USA 308 3.8 00:44:46 28° SSE 00:45:24 30° SE 00:49:04 10° E
Cosmos 2219 Rocket 2.7 00:42:56 18° SW 00:47:01 54° NW 00:52:32 10° NNE
Meteor 2-12 Rocket 4.4 00:42:24 10° NNW 00:48:31 84° W 00:52:26 23° S
Cosmos 1025 Rocket 4.5 00:47:03 16° SE 00:49:40 30° E 00:53:25 10° NNE
Cosmos 1707 4.5 00:50:02 16° WSW 00:51:57 23° WNW 00:55:06 10° NNW
GP-B 3.3 00:51:12 10° N 00:55:39 69° E 00:58:07 26° SSE
CZ-2D R/B 3.3 00:53:46 10° NNE 00:58:38 34° E 01:02:28 15° SSE
Cosmos 1300 2.6 00:56:04 10° NNW 00:59:51 76° W 01:01:27 33° S
Lacrosse 5 3.4 00:58:31 18° SSE 01:00:17 21° SE 01:04:05 10° ENE
ASTEX 1 4.4 00:57:52 10° N 01:02:21 36° WNW 01:05:07 20° SW
SL-14 R/B 3.3 01:02:27 33° SSW 01:04:06 71° WNW 01:07:58 10° N
USA 267 4.1 01:02:14 23° SSW 01:04:39 29° SW 01:10:12 10° WNW
USA 305 3.2 01:07:08 31° SSW 01:08:42 46° SSE 01:12:43 10° ENE
Cosmos 371 Rocket 3.3 01:06:03 26° SSW 01:08:46 84° WNW 01:13:40 10° NNE
Cosmos 2150 Rocket 4.0 01:06:08 25° SSW 01:09:12 82° WNW 01:14:23 10° NNE
USA 229 DEB 4.2 01:02:16 10° NW 01:09:12 47° WSW 01:15:06 16° S
USA 229 4.2 01:02:21 10° NW 01:09:18 47° WSW 01:15:15 16° S
Cosmos 2237 Rocket 2.2 01:11:28 24° SSW 01:15:01 80° ESE 01:20:46 10° NNE
COSMOS 2428 3.4 01:12:17 15° WSW 01:16:46 47° NW 01:22:16 10° NNE
Cosmos 1437 Rocket 3.9 01:15:01 10° NW 01:18:12 26° W 01:19:16 22° WSW
Cosmos 405 Rocket 3.9 01:18:03 21° WSW 01:19:49 31° WNW 01:23:15 10° N
Cosmos 304 Rocket 3.8 01:17:17 25° SSW 01:20:05 80° ESE 01:24:56 10° NNE
SL-16 R/B 2.8 01:15:21 10° SSE 01:21:31 71° ENE 01:27:45 10° NNW
Okean 1 Rocket 4.1 01:18:15 10° NNW 01:22:10 31° W 01:24:05 22° SW
Lacrosse 5 rocket 3.2 01:21:54 13° SSE 01:23:09 15° SE 01:25:32 10° E
Cosmos 1125 Rocket 3.7 01:20:01 22° SW 01:23:22 63° WNW 01:28:34 10° NNE
Cosmos 1953 3.6 01:21:35 10° NNW 01:24:58 27° W 01:26:26 21° WSW
SME Rocket 3.3 01:24:34 23° S 01:27:03 64° WSW 01:32:22 10° NNW
Cosmos 2074 Rocket 4.3 01:21:03 10° N 01:27:21 68° ENE 01:33:37 10° SSE
Cosmos 2360 Rocket 4.4 01:23:37 10° W 01:27:45 20° NW 01:31:55 10° NNE
Resurs 1-4 Rocket 2.5 01:22:48 10° NNE 01:28:01 58° ESE 01:31:57 18° S
Cosmos 2297 3.9 01:26:08 10° NNW 01:31:56 75° ENE 01:37:40 10° SE
Cosmos 1943 Rocket 2.2 01:26:15 10° NNW 01:31:59 90° ENE 01:37:39 10° SSE
USA 290 4.5 01:32:42 11° W 01:34:49 18° NW 01:37:08 10° N
Cosmos 1709 Rocket 4.4 01:29:26 10° NNW 01:35:16 46° W 01:39:17 19° SSW
MOZ.5/SAFIR/RUBIN 5/SL-8 4.2 01:34:00 22° SSW 01:36:41 45° W 01:41:15 10° NNW
Cosmos 1626 4.4 01:36:40 10° W 01:38:44 15° WNW 01:40:51 10° NNW
Cosmos 2315 Rocket 4.2 01:35:34 20° SSW 01:40:07 63° WNW 01:46:30 10° N
Cosmos 2184 Rocket 4.1 01:35:57 10° N 01:42:16 81° E 01:48:29 10° SSE
EO 1 Delta rocket 4.3 01:38:11 10° N 01:42:40 51° WNW 01:46:02 19° SW
Cosmos 2278 Rocket 3.3 01:38:08 10° NW 01:42:45 26° WSW 01:45:23 19° SW
ADEOS II 3.0 01:38:51 10° NNE 01:43:53 44° E 01:48:40 11° S
IDEFIX/ARIANE 42P 3.7 01:39:49 10° NNE 01:44:44 38° E 01:49:37 10° SSE
USA 306 2.8 01:47:34 18° WSW 01:50:37 75° SSE 01:54:48 10° ENE
Cosmos 2084 Rocket 3.4 01:49:15 22° SSW 01:51:29 57° SE 01:55:13 10° NE
Thor Agena Rocket 3.9 01:47:03 10° N 01:52:13 56° WNW 01:56:09 17° SW
USA 307 2.8 01:51:04 18° SW 01:54:06 71° SSE 01:58:17 10° ENE
NPP 3.7 01:50:38 10° NNE 01:56:04 79° ESE 02:00:36 15° SSW
ERBS 1.9 01:54:54 23° SW 01:56:37 78° SSE 01:59:42 10° ENE
Cosmos 2369 Rocket 2.7 01:51:38 10° NNW 01:57:13 62° NE 02:02:45 10° SE
Gblst 52 Del rocket 4.2 01:52:06 10° W 01:58:01 88° N 02:03:33 10° E
USA-17 4.5 01:55:20 10° NW 01:58:32 86° NE 02:02:33 10° SE
Cosmos 1455 Rocket 3.9 01:56:27 10° NNW 02:00:30 35° W 02:03:14 18° SSW
Cosmos 614 Rocket 4.0 01:55:44 10° NNW 02:00:58 89° ENE 02:06:12 10° SSE
CZ-4 R/B 3.8 01:56:24 10° NNE 02:01:04 78° WNW 02:04:41 17° SSW
Cosmos 2228 4.0 01:56:53 10° N 02:01:09 48° ENE 02:05:21 10° SSE
EO 1 Del DPAF 4.1 01:58:49 10° NNE 02:02:09 39° E 02:05:16 11° S
SL-16 R/B 2.4 01:58:00 16° SSW 02:02:32 68° ESE 02:08:11 10° NE
Cosmos 2251 Rocket 4.1 01:57:41 10° NNW 02:02:56 62° ENE 02:08:09 10° SE
Cosmos 1656 Rocket 4.3 02:01:14 10° NNW 02:06:37 58° NE 02:11:57 10° SE
Cosmos 1980 4.4 02:02:27 13° WSW 02:07:17 47° NW 02:12:45 10° NNE
Meteor 1-28 Rocket 3.1 02:03:46 10° SSE 02:07:31 88° ENE 02:11:16 10° NNW
Cosmos 2333 Rocket 4.4 02:05:16 10° WNW 02:09:13 19° NNW 02:13:12 10° NNE
CZ-4C R/B 4.5 02:05:10 10° WNW 02:09:36 16° WSW 02:12:59 13° SW
USA 215 4.0 02:03:22 10° ENE 02:09:44 56° N 02:16:06 10° W
COSMOS 2455 3.6 02:04:48 12° S 02:10:02 45° ESE 02:15:44 10° NE
Cosmos 332 Rocket 4.4 02:07:03 15° SW 02:10:47 48° WNW 02:15:27 10° NNE
NOSS 3 (A) 3.8 02:10:22 32° W 02:10:50 47° NW 02:12:38 10° NE
Cosmos 1536 Rocket 3.7 02:08:03 12° S 02:12:04 71° E 02:16:27 10° NNE
Cosmos 1975 Rocket 4.1 02:16:47 14° SW 02:20:01 33° WNW 02:24:05 10° N
Nadezhda 1 Rocket 4.1 02:15:14 10° S 02:21:37 84° E 02:27:55 10° N
Meteor 1-24 Rocket 3.9 02:17:03 14° SSW 02:21:46 57° WNW 02:27:09 10° N
MSX 4.3 02:16:12 10° NNE 02:21:55 60° ESE 02:27:37 10° S
UNK 4.1 02:19:09 12° S 02:23:16 45° W 02:27:43 10° NNW
Cosmos 1455 2.7 02:20:54 10° NNW 02:24:23 40° W 02:27:22 13° SSW
USA 308 2.9 02:20:32 10° WSW 02:24:44 87° NNW 02:28:56 10° ENE
Cosmos 1025 Rocket 4.0 02:23:55 14° SW 02:27:12 33° WNW 02:31:07 10° N
MOS 1 Rocket 3.4 02:23:22 11° S 02:27:19 46° W 02:31:30 10° NNW
Cosmos 1271 Rocket 2.7 02:24:29 10° NNW 02:28:16 66° W 02:32:05 10° S
Cosmos 2219 Rocket 4.4 02:28:42 10° WNW 02:32:18 17° NNW 02:35:55 10° N
Cosmos 1606 Rocket 4.0 02:27:57 10° N 02:32:22 66° ENE 02:36:44 10° SSE
ALOS 4.5 02:32:20 10° NE 02:35:59 22° E 02:39:38 10° SE
CZ-2D R/B 2.8 02:33:42 10° N 02:38:49 44° WNW 02:43:47 10° SW
Lacrosse 5 1.9 02:37:42 11° SW 02:42:39 79° SE 02:47:46 10° ENE
Helios 1B rocket 3.9 02:39:19 10° NNE 02:43:03 34° E 02:46:46 10° SSE
Cosmos 2341 Rocket 4.2 02:38:39 10° N 02:45:05 84° E 02:51:30 10° S
USA 305 3.1 02:44:02 10° W 02:48:12 69° NNW 02:52:24 10° ENE
Cosmos 2154 Rocket 4.4 02:42:21 10° NNW 02:48:27 50° W 02:54:28 10° SSW
Meteor 2-1 Rocket 4.3 02:43:50 10° NNW 02:49:41 89° WSW 02:55:21 10° S
BREEZE-M DEB (TANK) 4.5 02:47:43 10° SSW 02:50:49 17° SSE 02:52:44 10° ESE
Cosmos 407 Rocket 3.6 02:45:32 10° NNW 02:50:55 85° ENE 02:56:12 10° SSE
SL-8 Rocket 4.2 02:45:27 10° N 02:51:49 80° ENE 02:58:09 10° SSE
Cosmos 1943 3.9 02:52:05 10° S 02:57:36 52° ESE 03:03:07 10° NE
Cosmos 1328 4.2 02:53:48 10° S 02:57:43 63° E 03:01:41 10° NNE
Helios 1A 3.8 02:54:14 10° SSW 02:58:01 32° W 03:01:52 10° NNW
Genesis I 3.2 02:54:26 10° NW 02:58:31 81° SW 03:02:32 10° SE
Cosmos 2237 Rocket 3.8 02:54:58 10° W 02:59:45 27° NW 03:04:34 10° NNE
Lacrosse 5 rocket 1.3 02:57:38 10° SW 03:01:32 74° SE 03:05:42 10° ENE
Cosmos 1140 Rocket 3.5 02:56:35 10° NNW 03:01:51 77° WSW 03:07:05 10° SSE
ATLAS 2AS CENTAUR R/B 4.5 02:57:32 10° NW 03:04:22 37° NNE 03:10:47 10° E
SL-16 R/B 3.6 03:00:39 10° SW 03:05:40 25° W 03:10:46 10° NW
Resurs 1-4 Rocket 3.4 03:03:09 10° N 03:07:31 27° WNW 03:11:54 10° WSW
NOSS 3-4 (A) 4.4 03:02:31 10° NW 03:09:13 66° NE 03:16:49 10° ESE
NOSS 3-4 (C) 4.4 03:02:36 10° NW 03:09:17 66° NE 03:16:51 10° ESE
Lacrosse 4 Rocket 4.1 03:07:56 10° SE 03:09:58 13° ESE 03:11:59 10° ENE
Cosmos 1892 Rocket 3.9 03:07:05 10° S 03:11:31 71° E 03:16:00 10° NNE
